ROMMA est une association bénévole à but non lucratif. Votre soutien est indispensable : ADHERER à ROMMA ou FAIRE un DON

Crêts du Salève - (74, Haute-Savoie)

Salève (1270 m)   Longitude: 6° 10' 28'' E   Latitude: 46° 7' 42'' N Station romma n°73
 

Détail journalier du     <<     >>

Température Precipitation Humidité Vent Dir Rafale Dir. rafale Ensol.
Heure (°C) (mm) (%) (km/h) (km/h) (min)
01:00 8.909436S53S0
02:00 9.309141S55S0
03:00 9.408936S52SSE0
04:00 9.908534S47S0
05:00 9.908438S52S0
06:00 9.808439S58S0
07:00 10.108330S48SSE0
08:00 8.629327S52S0
09:00 8.70.29234S56S0
10:00 8.919145S69S0
11:00 9.408746S64S0
12:00 9.908442S61SSE0
13:00 11.107943SSO74SSO0
14:00 11.308042SSO69SSO20
15:00 10.908436SSO61SO0
16:00 10.808735SSO58SSO0
17:00 10.708935SSO64SSO0
18:00 9.609832SO48SSO0
19:00 9.909529S45SSE0
20:00 10.00.29336S61SSE0
21:00 9.709136S50SSE0
22:00 9.609437S60S0
23:00 9.61.28946S72S0
minuit 10.808241S61S0

Graphique du 18-10-2019

 

Serveur OMMA